Zurück zum Katalog

STARLINK-37003

AktivKommunikationVLEO
NORAD 68170·PAYLOAD·🇺🇸 United States

Gestartet Mar 14, 2026 von Vandenberg Space Force Base

Loading…

Nächste Überflüge (nächste 24 Stunden)

TLE

AktuellSource: CelesTrak SupGP

Epoche: Sep 14, 2026, 23:23 UTC

1 68170C 26050D   26257.97479167  .00021402  00000+0  63246-3 0  2576
2 68170  53.1575 103.2824 0001229  81.6209 278.1037 15.34373082    15

Verfolge STARLINK-37003 in Echtzeit mit AllMySat

Download on the App Store